Regional Weather Roundup
Issued by NWS Grand Forks, ND

Home | Current Version | Previous Version | Text Only | Print | Product List | Glossary Off
Versions: 1 2 3 4 5 6 7 8 9 10 11 12 13 14 15 16 17 18 19 20 21 22 23 24 25 26 27 28 29 30 31 32 33 34 35 36 37 38 39 40 41 42 43 44 45 46 47 48 49 50

000
ASUS43 KFGF 171310
RWRFGF
PRAIRIE TO PINES  WEATHER ROUNDUP
NATIONAL WEATHER SERVICE EASTERN NORTH DAKOTA/GRAND FORKS ND
700 AM CST TUE JAN 17 2017

 **SATELLITE DATA USED TO AUGMENT SKY COVER AT AUTOMATED STATIONS**
 *****  WEATHER ACROSS EASTERN NORTH DAKOTA  *****

CITY           SKY/WX    TMP DP  RH WIND       PRES   REMARKS
GRAND FORKS    FAIR       1  -3  83 S7        29.94F WCI -12
GRAND FRKS AFB FAIR      10   6  84 S9        29.93F WCI  -4
DEVILS LAKE    FAIR      10   7  87 SW8       29.91F WCI  -2
FARGO          FAIR       5   1  83 S3        29.98F
WAHPETON ARPT  FAIR       1  -4  78 W6        30.02R WCI -10
$$

 ***** WEATHER ACROSS CENTRAL AND WESTERN NORTH DAKOTA  *****

CITY           SKY/WX    TMP DP  RH WIND       PRES   REMARKS
BISMARCK       FAIR       5   1  83 CALM      29.95F
MINOT          FAIR      19  13  77 S9        29.83F WCI   8
JAMESTOWN      FAIR       7   5  91 CALM      29.93F
MINOT AFB      NOT AVBL
GARRISON         N/A      6   2  83 S3        29.87F
WILLISTON      FAIR      10   5  80 S5        29.82F WCI   2
DICKINSON      FAIR      21   9  59 SW15      29.85F WCI   8
HETTINGER      FAIR       8   4  83 CALM      29.92F
$$

 *****  OTHER AIRPORT OBSERVATIONS IN OUR AREA  *****

CITY           SKY/WX    TMP DP  RH WIND       PRES   REMARKS
WALHALLA       NOT AVBL
GRAFTON AIRPOR FAIR       1  -2  85 S7        29.94F WCI -11
VALLEY CITY AR FLURRIES   9   9 100 W3        29.96F
CANDO          NOT AVBL
CAVALIER APRT    N/A      3   0  85 S7        29.89F WCI  -9
GWINNER        FAIR      12   9  85 SW7       29.97F WCI   2
SHEYENNE NWR     N/A      2  -3  78 CALM      29.95S
ROLLA            N/A    N/A N/A N/A MISG        N/A
 ***** THE ABOVE OBSERVATIONS ARE NON NWS ARE NOT QUALITY
       CONTROLLED AND MAY MIS-REPORT RAIN FOR SNOW...
$$

  *****  WEATHER ACROSS NORTHERN MINNESOTA  *****

CITY           SKY/WX    TMP DP  RH WIND       PRES   REMARKS
FLAG ISLAND    FAIR       1  -2  85 SE5       29.90F WCI  -8
WARROAD        FAIR       1  -2  85 S5        29.91F WCI  -8
ROSEAU         FAIR       1  -4  78 S3        29.92S
HALLOCK        FAIR       3   0  85 SE10      29.92F WCI -12
THF RVR FALLS  FAIR       1  -2  87 S6        29.95F WCI -10
BAUDETTE       FAIR      -2  -7  79 NW8       29.92R WCI -17
WASKISH        FAIR      -4  -8  84 CALM      29.92F
CROOKSTON      FAIR       1  -2  85 S8        29.96F WCI -12
GREENBUSH NDAW   N/A      3   1  92 S5          N/A  WCI  -6
$$
  *****  WEATHER ACROSS CENTRAL AND WEST MINNESOTA  *****

CITY           SKY/WX    TMP DP  RH WIND       PRES   REMARKS
FOSSTON        FAIR       0  -2  92 SW3       29.95R FOG
BEMIDJI        FAIR      -3  -6  84 CALM      29.92F
PARK RAPIDS    FAIR      -4 -11  72 CALM      29.94R HAZE
ELBOW LAKE     FAIR       1  -2  88 CALM      29.99S
WADENA         LGT SNOW   0  -4  85 CALM      29.95F
DETROIT LAKES  FAIR       3   0  85 CALM      29.96F
MOORHEAD       FAIR       0  -6  78 SE7       29.99F WCI -13
FERGUS FALLS   FAIR       1   0  92 CALM      30.05R
MORRIS MN      FAIR       3   0  85 CALM      29.99F
STAPLES        FAIR      -2  -6  84 CALM      29.96S FOG
$$
  *****  WEATHER ELSEWHERE ACROSS MINNESOTA  *****

CITY           SKY/WX    TMP DP  RH WIND       PRES   REMARKS
DULUTH         FOG       19  19 100 CALM      29.92S VSB 1/8
INTRNTL FALLS  MOCLDY    -3 -10  72 CALM      29.93F
ELY            FOG       -4  -8  84 CALM      29.93S VSB 1/2
CLOQUET        MOCLDY    12  10  92 NW5       29.93S WCI   4
WHEATON        FAIR       9   5  85 CALM      30.02S
BRAINERD       FAIR       3   1  91 CALM      29.96S FOG
HIBBING        FOG       -3  -5  90 CALM      29.93S VSB<1/4
ALEXANDRIA     FAIR       3   0  87 W7        29.97R FOG     WCI  -9
SAINT CLOUD    CLOUDY    27  26  96 NW5       29.96S FOG     WCI  22
MINNEAPOLIS    FRZ RAIN  31  28  89 NW7       29.94R FOG     WCI  24
$$

  *****  WEATHER ACROSS SOUTH DAKOTA  *****

CITY           SKY/WX    TMP DP  RH WIND       PRES   REMARKS
SIOUX FALLS    FAIR      11   9  92 W6        30.02R WCI   1
BROOKINGS      FAIR       6   3  87 N3        29.99R
WATERTOWN      FAIR       0  -4  83 W5        29.98R WCI -10
HURON          FAIR       2   0  91 W3        30.04R
SISSETON         N/A      4   1  88 CALM      29.99S
ABERDEEN       FAIR      -3  -8  79 S5        30.01F WCI -13
MITCHELL       FAIR      10   7  87 W3        30.06S
PIERRE         FAIR      11   7  84 SW8       30.02S WCI  -1
MOBRIDGE       FAIR       7   1  76 E5        29.95F WCI  -2
RAPID CITY     FAIR      11   7  84 CALM      29.96F
$$

  *****  SOME WEATHER IN NEARBY STATES *****

CITY           SKY/WX    TMP DP  RH WIND       PRES   REMARKS
GLASGOW MT     FAIR      14   8  77 S10       29.75F WCI   1
GREAT FALLS MT FAIR      33  17  51 SW24      29.82F WCI  20
CHEYENNE WY    FAIR      14   8  77 W8        30.00F WCI   3
SCOTTSBLUFF NE FAIR      14   9  80 N3        30.03F
OMAHA NE       FLURRIES  28  24  85 NW12      30.04R WCI  18
DES MOINES IA  DRIZZLE   34  32  92 NW9       29.97R FOG
DAVENPORT IA   CLOUDY    34  33  96 W12       29.88R FOG
CHICAGO IL     FOG       37  37 100 W6        29.78R VSB 1
EAU CLAIRE WI  LGT SNOW  33  32  96 N6        29.89S FOG
LA CROSSE WI   CLOUDY    36  33  89 NW8       29.87S FOG
$$

  *****  SOME NATIONAL WEATHER *****

CITY           SKY/WX    TMP DP  RH WIND       PRES   REMARKS
LA GUARDIA NY  CLOUDY    42  30  62 SW5       30.22S
RALEIGH NC     DRZL/FOG  48  48 100 SW7       30.25F VSB 1/8
ATLANTA GA     MOCLDY    55  54  96 CALM      30.22R
NEW ORLEANS LA MOCLDY    68  68 100 S6        30.13R FOG
OKLAHOMA CITY  FAIR      35  33  92 NW6       30.14R
ALBUQUERQUE NM MOCLDY    37  35  92 N10       30.11S
SALT LAKE CITY FAIR      19  17  92 CALM      30.27F
LOS ANGELES CA FAIR      48  45  89 E3        30.07R
BOISE ID       FAIR       1  -2  87 CALM      30.35F FOG
SEATTLE WA     LGT RAIN  40  37  89 SE10      29.85F
$$

*** WEATHER ACROSS MANITOBA...SASKATCHEWAN AND ONTARIO ***
                ***ONTARIO***

CITY           SKY/WX    TMP DP  RH WIND       PRES   REMARKS
GERALDTON      CLOUDY    18  16  93 N2        29.97S FOG
THUNDER BAY    CLOUDY    25  21  86 SW5       29.97F WCI  19
SIOUX LOOKOUT  CLEAR      3   1  92 S2        29.90S
TORONTO        LGT RAIN  34  32  93 E13       30.01F FOG     WCI  25
BIG TROUT LK   CLOUDY    16  14  93 S10G17    29.75F WCI   3
PICKLE LAKE    PTCLDY     9   5  85 S9        29.86F WCI  -5
DRYDEN         CLEAR      9   7  92 SW3       29.89R
KENORA         PTCLDY     7   5  92 S7        29.87F WCI  -5
$$
                *** MANITOBA***

CITY           SKY/WX    TMP DP  RH WIND       PRES   REMARKS
BRANDON        CLEAR      3   0  85 NW9       29.80F WCI -11
DAUPHIN        CLEAR     32  21  64 W9        29.67F WCI  24
ISLAND LAKE    PTCLDY    25  19  80 S6        29.62F WCI  18
PILOT MOUND      N/A      9   5  85 S6          N/A  WCI  -1
THE PAS        CLOUDY    30  18  59 S13G18    29.42F WCI  20
THOMPSON       CLOUDY    30  25  80 SW8       29.37F WCI  23
WINNIPEG       PTCLDY     5   3  92 S13       29.86F WCI -12
LYNN LAKE      CLOUDY    30  27  86 SW10      29.23F WCI  21
CHURCHILL      CRYSTALS  21  19  93 SW12      29.21F WCI   9
GILLAM         MOCLDY    30  25  80 SW14G22   29.37F WCI  20
$$
                ***SASKATCHEWAN***

CITY           SKY/WX    TMP DP  RH WIND       PRES   REMARKS
ESTEVAN        PTCLDY    18  10  73 SW21G26   29.74F WCI   1
KINDERSLEY     CLOUDY    36  27  69 SW9       29.46R
LLOYDMINSTER   CLOUDY    36  28  75 W10       29.33F
PRINCE ALBERT  MOCLDY    28  19  69 SW10      29.38F WCI  19
REGINA         MOCLDY    21  14  73 SE13      29.60F WCI   9
YORKTON        CLEAR     23  14  68 S18G24    29.59F WCI   9
N. BATTLEFORD  CLEAR     34  25  69 SW7       29.41F
LA RONGE       MOCLDY    30  19  64 S7        29.25F WCI  23
SASKATOON      MOCLDY    23  18  80 S5        29.45F WCI  17
SWIFT CURRENT  CLEAR     32  23  69 SW20G25   29.54R WCI  20
$$
NOTE: THESE ARE AUTOMATED STATIONS WITH LIMITED QUALITY CONTROL
      "FAIR" INDICATES FEW OR NO CLOUDS BELOW 12,000 FEET WITH NO
      SIGNIFICANT WEATHER AND/OR OBSTRUCTIONS TO VISIBILITY.
      SKY/WX - SKY CONDITION AND SIGNIFICANT WEATHER.
      TMP - AIR TEMPERATURE.    DP   - DEWPOINT TEMPERATURE.
      RH  - RELATIVE HUMIDITY.  PRES - PRESSURE.
      HX  - HEAT INDEX.         WCI  - WIND CHILL INDEX.
$




USA.gov is the U.S. government's official web portal to all federal, state and local government web resources and services.